This demonstration page uses our WeatherBlox Daily Observations layout. Learn more.

Left ArrowRight Arrow

38.80484, -77.04692

Hourly Observations for October 1, 2022

Temp ( °F °C ) Dew Point ( °F °C ) Humidity (%) Winds ( mph kmh ) Pressure ( in mb ) Visibility ( mi km ) Precip ( " mm )
12:29 am 00:29 Cloudy with Rain 56 13.3 54 12.2 93 93 NNE 20 31 29.98 1015 4 6 0.08 2.03
12:52 am 00:52 Cloudy with Light Rain 57 13.9 54 12.2 89 89 NNE 18 30 29.96 1014 9 14 0.10 2.54
1:12 am 01:12 Cloudy with Heavy Rain 56 13.3 54 12.2 93 93 NNE 15 24 29.98 1015 3 4 0.05 1.27
1:26 am 01:26 Cloudy with Rain 56 13.3 54 12.2 93 93 NNE 20 31 29.96 1015 3 5 0.18 4.57
1:52 am 01:52 Cloudy with Light Rain 56 13.3 54 12.2 93 93 NNE 16 26 29.95 1014 5 8 0.19 4.83
2:05 am 02:05 Cloudy with Light Rain 57 13.9 54 12.2 89 89 NNE 18 30 29.95 1014 7 11 0.02 0.51
2:52 am 02:52 Cloudy with Light Rain 57 13.9 54 12.2 89 89 NNE 21 33 29.91 1013 4 6 0.06 1.52
3:52 am 03:52 Cloudy with Light Rain 57 13.9 55 12.8 93 93 NNE 17 28 29.89 1012 6 10 0.04 1.02
4:52 am 04:52 Cloudy with Light Rain 58 14.4 55 12.8 90 90 NNE 17 28 29.89 1012 7 11 0.01 0.25
5:52 am 05:52 Cloudy 58 14.4 55 12.8 90 90 NNE 17 28 29.89 1012 10 16 0.02 0.51
6:52 am 06:52 Cloudy 58 14.4 55 12.8 90 90 NE 16 26 29.88 1012 10 16 0.00 0.00
7:04 am 07:04 Cloudy 58 14.4 55 12.8 90 90 NNE 18 30 29.88 1012 10 16 0.00 0.00
7:52 am 07:52 Cloudy 58 14.4 56 13.3 93 93 NE 16 26 29.88 1012 10 16 0.00 0.00
8:39 am 08:39 Cloudy 59 15 56 13.3 90 90 NE 18 30 29.89 1012 10 16 0.01 0.13
8:52 am 08:52 Cloudy with Light Rain 59 15 56 13.3 90 90 NE 18 30 29.89 1012 8 13 0.01 0.13
9:01 am 09:01 Cloudy with Light Rain 59 15 56 13.3 90 90 NE 17 28 29.89 1012 7 11 0.01 0.13
9:46 am 09:46 Cloudy with Heavy Rain 59 15 55 13 88 88 NE 17 28 29.91 1013 2 3 0.02 0.51
9:52 am 09:52 Cloudy with Light Rain 59 15 56 13.3 90 90 NE 15 24 29.90 1013 2 2 0.03 0.76
9:57 am 09:57 Cloudy with Light Rain 59 15 56 13.3 90 90 NE 14 22 29.90 1013 3 5 0.01 0.13
10:52 am 10:52 Cloudy 59 15 56 13.3 90 90 NE 16 26 29.89 1012 10 16 0.01 0.25
11:50 am 11:50 Cloudy 61 16 57 14 88 88 ENE 20 31 29.88 1012 10 16 0.00 0.00
11:52 am 11:52 Cloudy 60 15.6 57 13.9 90 90 NE 20 31 29.88 1012 10 16 0.00 0.00
12:24 pm 12:24 Cloudy with Rain 60 15.6 58 14.4 93 93 NE 12 19 29.88 1012 2 2 0.01 0.25
12:41 pm 12:41 Cloudy with Light Rain 60 15.6 58 14.4 93 93 NE 14 22 29.88 1012 6 10 0.02 0.51
12:52 pm 12:52 Cloudy 60 15.6 57 13.9 90 90 ENE 13 20 29.89 1012 10 16 0.02 0.51
1:08 pm 13:08 Cloudy with Light Rain 60 15.6 58 14.4 93 93 NE 13 20 29.88 1012 2 3 0.01 0.25
1:17 pm 13:17 Cloudy with Light Rain 60 15.6 58 14.4 93 93 NE 10 17 29.88 1012 9 14 0.02 0.51
1:52 pm 13:52 Cloudy 61 16.1 58 14.4 90 90 NE 17 28 29.86 1011 10 16 0.02 0.51
2:52 pm 14:52 Cloudy 62 16.7 59 15 90 90 NE 12 19 29.84 1011 10 16 0.00 0.00
3:52 pm 15:52 Cloudy with Light Rain 62 16.7 59 15 90 90 NE 17 28 29.83 1010 10 16 0.01 0.13
4:52 pm 16:52 Cloudy 63 17.2 60 15.6 90 90 NNE 10 17 29.83 1010 10 16 0.01 0.13
5:52 pm 17:52 Cloudy 64 17.8 61 16.1 90 90 NE 10 17 29.84 1010 10 16 0.00 0.00
6:52 pm 18:52 Cloudy 63 17.2 61 16.1 93 93 NE 15 24 29.84 1010 10 16 0.01 0.13
6:59 pm 18:59 Cloudy 63 17.2 61 16.1 93 93 NE 15 24 29.84 1010 10 16 0.00 0.00
7:52 pm 19:52 Cloudy 63 17.2 61 16.1 93 93 NE 14 22 29.85 1011 7 11 0.00 0.00
8:23 pm 20:23 Cloudy with Drizzle 63 17.2 61 16.1 93 93 NE 10 17 29.86 1011 3 5 0.01 0.13
8:52 pm 20:52 Cloudy with Drizzle 63 17.2 61 16.1 93 93 NE 10 17 29.86 1011 4 6 0.01 0.13
9:33 pm 21:33 Cloudy 63 17.2 61 16.1 93 93 NE 13 20 29.87 1011 9 14 0.01 0.13
9:52 pm 21:52 Cloudy with Mist and Fog 63 17.2 61 16.1 93 93 NE 12 19 29.86 1011 4 6 0.01 0.13
10:18 pm 22:18 Cloudy with Drizzle 62 16.7 60 15.6 93 93 NE 10 17 29.87 1012 5 8 0.01 0.13
10:45 pm 22:45 Cloudy with Drizzle 62 16.7 61 16.1 96 96 E 5 7 29.88 1012 3 4 0.01 0.13
10:48 pm 22:48 Cloudy with Light Rain 63 17 61 16 94 94 E 5 7 29.88 1012 2 3 0.01 0.13
10:52 pm 22:52 Cloudy with Rain 63 17.2 61 16.1 93 93 E 5 7 29.88 1012 2 3 0.01 0.25
11:12 pm 23:12 Cloudy with Light Rain 63 17.2 61 16.1 93 93 ENE 9 15 29.88 1012 3 4 0.03 0.76
11:19 pm 23:19 Cloudy with Light Rain 62 16.7 61 16.1 96 96 NE 9 15 29.88 1012 2 3 0.04 1.02
11:30 pm 23:30 Cloudy with Mist and Fog 62 16.7 61 16.1 96 96 ENE 9 15 29.88 1012 4 6 0.04 1.02
11:39 pm 23:39 Cloudy with Mist and Fog 62 16.7 61 16.1 96 96 ENE 9 15 29.88 1012 3 5 0.04 1.02
11:52 pm 23:52 Cloudy with Light Rain 62 16.7 61 16.1 96 96 ENE 9 15 29.88 1012 6 10 0.04 1.02

Powered by AerisWeather